Weather History for Kansas City International, MO

Change the Weather History Date:

Thursday, January 23, 2014

  Actual Average Record
Temperature  
Mean Temperature 8 °F 29 °F  
Max Temperature 16 °F 38 °F 73 °F (1967)
Min Temperature 0 °F 20 °F -9 °F (2003)
Degree Days  
Heating Degree Days 57 36  
Month to date heating degree days 932 828  
Since 1 July heating degree days 3129 2870  
Cooling Degree Days 0 0  
Month to date cooling degree days 0 0  
Year to date cooling degree days 0 0  
Moisture  
Dew Point -9 °F    
Average Humidity 48    
Maximum Humidity 62    
Minimum Humidity 33    
Precipitation  
Precipitation 0.00 in 0.04 in 1.70 in (1938)
Month to date precipitation 0.36 0.75  
Year to date precipitation 0.36 0.75  
Snow  
Snow 0.00 in 0.20 in 4.60 in (1939)
Month to date snowfall 5.1 3.3  
Since 1 July snowfall 10.8 9.5  
Snow Depth 0.00 in    
Sea Level Pressure  
Sea Level Pressure 30.76 in    
Wind  
Wind Speed 11 mph (NW)    
Max Wind Speed 23 mph    
Max Gust Speed 29 mph    
Visibility 10 miles    
Events      
T = Trace of Precipitation, MM = Missing Value Source: NWS Daily Summary

Daily Weather History Graph

Daily Weather History Graph

Search for Another Location

Airport:

Trip Planner

Search our weather history database for the weather conditions in past years. The results will help you decide how hot, cold, wet, or windy it might be!

Date:

Astronomy

Jan. 23, 2014 Rise Set
Actual Time 7:32 AM CST 5:29 PM CST
Civil Twilight 7:04 AM CST 5:57 PM CST
Nautical Twilight 6:31 AM CST 6:30 PM CST
Astronomical Twilight 5:59 AM CST 7:02 PM CST
Moon No Moon Rise 11:11 AM CST (1/23)
Length of Visible Light 10h 53m
Length of Day
9h 56m
Waning Gibbous, 55% of the Moon is Illuminated
Jan 23
Waning Gibbous
Jan 23
Last Quarter
Jan 30
New
Feb 6
First Quarter
Feb 14
Full

Hourly Weather History & Observations

Time (CST) Temp. Windchill Dew Point Humidity Pressure Visibility Wind Dir Wind Speed Gust Speed Precip Events Conditions
12:53 AM 3.9 °F -15.6 °F -9.9 °F 53% 30.59 in 10.0 mi NNW 17.3 mph - N/A   Scattered Clouds
1:53 AM 3.0 °F -15.5 °F -9.9 °F 55% 30.60 in 10.0 mi North 15.0 mph - N/A   Scattered Clouds
2:53 AM 1.9 °F -17.5 °F -9.9 °F 58% 30.62 in 10.0 mi North 16.1 mph 21.9 mph N/A   Scattered Clouds
3:53 AM 1.0 °F -18.7 °F -11.0 °F 57% 30.65 in 10.0 mi North 16.1 mph - N/A   Scattered Clouds
4:53 AM 1.0 °F -18.0 °F -9.9 °F 60% 30.68 in 10.0 mi North 15.0 mph - N/A   Scattered Clouds
5:53 AM 1.0 °F -16.6 °F -11.0 °F 57% 30.71 in 10.0 mi North 12.7 mph - N/A   Scattered Clouds
6:53 AM -0.0 °F -18.7 °F -11.0 °F 60% 30.75 in 10.0 mi NNW 13.8 mph - N/A   Scattered Clouds
7:53 AM -0.0 °F -18.0 °F -11.0 °F 60% 30.79 in 10.0 mi NW 12.7 mph - N/A   Mostly Cloudy
8:53 AM 1.0 °F -17.3 °F -11.0 °F 57% 30.83 in 10.0 mi NNW 13.8 mph - N/A   Mostly Cloudy
9:53 AM 1.9 °F -13.8 °F -9.9 °F 58% 30.86 in 10.0 mi NW 10.4 mph - N/A   Mostly Cloudy
10:53 AM 5.0 °F -10.8 °F -9.9 °F 50% 30.88 in 10.0 mi NNW 11.5 mph - N/A   Mostly Cloudy
11:53 AM 8.1 °F -8.4 °F -8.0 °F 48% 30.86 in 10.0 mi NW 13.8 mph 17.3 mph N/A   Partly Cloudy
12:53 PM 10.9 °F -3.4 °F -8.0 °F 42% 30.84 in 10.0 mi NNW 11.5 mph - N/A   Partly Cloudy
1:53 PM 12.9 °F -0.9 °F -9.0 °F 37% 30.82 in 10.0 mi NW 11.5 mph - N/A   Partly Cloudy
2:53 PM 15.1 °F 1.8 °F -9.0 °F 34% 30.81 in 10.0 mi NNW 11.5 mph - N/A   Partly Cloudy
3:53 PM 15.1 °F 1.8 °F -9.0 °F 34% 30.81 in 10.0 mi NW 11.5 mph - N/A   Clear
4:53 PM 14.0 °F 0.5 °F -8.0 °F 37% 30.81 in 10.0 mi NW 11.5 mph - N/A   Clear
5:53 PM 10.9 °F 2.9 °F -8.0 °F 42% 30.80 in 10.0 mi NW 4.6 mph - N/A   Clear
6:53 PM 10.0 °F 3.6 °F -8.0 °F 44% 30.81 in 10.0 mi NW 3.5 mph - N/A   Clear
7:53 PM 10.0 °F 1.8 °F -8.0 °F 44% 30.79 in 10.0 mi SW 4.6 mph - N/A   Clear
8:53 PM 8.1 °F -0.5 °F -7.1 °F 50% 30.78 in 10.0 mi SSW 4.6 mph - N/A   Clear
9:53 PM 5.0 °F -6.9 °F -7.1 °F 58% 30.76 in 10.0 mi SSW 6.9 mph - N/A   Clear
10:53 PM 3.9 °F -9.4 °F -7.1 °F 60% 30.72 in 10.0 mi SSW 8.1 mph - N/A   Clear
11:53 PM 5.0 °F -8.1 °F -6.0 °F 61% 30.69 in 10.0 mi SSW 8.1 mph - N/A   Clear